Location: Foligno
(42.9600°N, 12.7050°E)
Time: 12:01:09
(UTC+02:00)

ISS - Pass Details

Date: 12 July 2018
Orbit: 402 x 408 km, 51.6° (Epoch: 21 July)

Event Time Altitude Azimuth Distance (km) Brightness Sun altitude
Exits shadow 02:48:39 35° 317° (NW) 671 -2.6 -21.5°
Maximum altitude 02:49:03 37° 336° (NNW) 650 -2.5 -21.5°
Drops below altitude 10° 02:52:09 10° 46° (NE) 1,472 0.0 -21.3°
Sets 02:54:20 0° 55° (NE) 2,336 1.0 -21.1°
